GW6099 Weather Reports


Display with metric or nautical units.
time (UTC)temp
F
wind
direction
speed
MPH
gust
MPH
rain 1hr
in
rain 24hr
in
rain mn
in
humidity
%
barometer
mb
20260510163013 66 67 4.0 8.0 0.00 0.00 0.00 52 1019.6
20260510161515 65 36 5.0 12.0 0.00 0.00 0.00 53 1019.5
20260510160012 66 48 4.0 10.0 0.00 0.00 0.00 57 1019.5
20260510154517 65 18 5.0 10.0 0.00 0.00 0.00 53 1019.5
20260510153016 66 12 2.0 10.0 0.00 0.00 0.00 57 1019.5
20260510151516 65 300 2.0 11.0 0.00 0.00 0.00 56 1019.6
20260510150016 65 51 5.0 12.0 0.00 0.00 0.00 59 1019.5
20260510144519 64 58 5.0 10.0 0.00 0.00 0.00 61 1019.3
20260510143033 64 24 5.0 12.0 0.00 0.00 0.00 61 1019.3
20260510141521 63 27 5.0 12.0 0.00 0.00 0.00 63 1018.9
20260510140018 63 37 4.0 12.0 0.00 0.00 0.00 65 1018.8
20260510134520 62 41 6.0 13.0 0.00 0.00 0.00 68 1018.7
20260510133016 61 23 4.0 10.0 0.00 0.00 0.00 72 1018.3
20260510131523 60 16 5.0 13.0 0.00 0.00 0.00 76 1018.2
20260510130021 60 18 4.0 9.0 0.00 0.00 0.00 82 1017.9
20260510124507 58 15 0.0 6.0 0.00 0.00 0.00 89 1018.1
20260510123024 55 354 0.0 0.0 0.00 0.00 0.00 94 1017.8
20260510121521 53 316 0.0 0.0 0.00 0.00 0.00 96 1017.6
20260510120004 52 321 0.0 0.0 0.00 0.00 0.00 95 1017.4
20260510114506 51 320 0.0 1.0 0.00 0.00 0.00 95 1017.3
20260510113015 51 346 0.0 0.0 0.00 0.00 0.00 95 1016.9
20260510111514 51 346 0.0 0.0 0.00 0.01 0.00 95 1016.5
20260510110031 51 347 0.0 0.0 0.00 0.01 0.00 94 1016.0
20260510104504 51 345 0.0 0.0 0.00 0.01 0.00 95 1016.0
20260510103007 51 345 0.0 0.0 0.00 0.01 0.00 94 1015.9
20260510101511 51 345 0.0 0.0 0.00 0.01 0.00 94 1015.8
20260510100018 52 96 0.0 0.0 0.00 0.01 0.00 94 1015.5
20260510094541 52 76 0.0 0.0 0.00 0.01 0.00 93 1015.4
20260510093023 53 15 0.0 1.0 0.00 0.01 0.00 93 1015.3
20260510091517 53 177 0.0 0.0 0.00 0.01 0.00 92 1015.2
20260510090015 53 177 0.0 0.0 0.00 0.01 0.00 91 1014.7
20260510084521 53 187 0.0 0.0 0.00 0.01 0.00 91 1014.6
20260510083022 54 186 0.0 0.0 0.00 0.01 0.00 91 1014.9
20260510081527 54 186 0.0 0.0 0.00 0.01 0.00 91 1015.0
20260510080014 54 186 0.0 0.0 0.00 0.01 0.00 91 1014.7
20260510074516 54 268 0.0 0.0 0.00 0.01 0.00 90 1014.4
20260510073026 54 146 0.0 0.0 0.00 0.01 0.00 90 1014.4
20260510071525 54 146 0.0 0.0 0.00 0.01 0.00 89 1014.3
20260510070032 54 146 0.0 0.0 0.00 0.01 0.00 89 1014.2
20260510064513 54 110 0.0 0.0 0.00 0.01 0.00 90 1014.3
20260510063004 55 192 0.0 0.0 0.00 0.01 0.00 89 1014.4
20260510061504 55 205 0.0 0.0 0.00 0.01 0.00 87 1014.5
20260510060010 55 128 0.0 0.0 0.00 0.01 0.00 87 1014.3
20260510054512 55 103 0.0 0.0 0.00 0.01 0.00 87 1014.4
20260510053042 56 101 0.0 0.0 0.00 0.01 0.00 85 1014.4
20260510051504 55 286 0.0 9.0 0.00 0.01 0.00 90 1014.3
20260510050008 54 115 0.0 0.0 0.00 0.01 0.00 91 1013.7
20260510044511 55 108 0.0 0.0 0.00 0.01 0.01 91 1013.6
20260510043021 54 115 0.0 0.0 0.00 0.01 0.01 91 1013.2
20260510041524 55 115 0.0 0.0 0.00 0.01 0.01 91 1013.2
20260510040004 55 120 0.0 0.0 0.00 0.01 0.01 90 1013.3
20260510034506 55 146 0.0 0.0 0.00 0.02 0.01 90 1013.3
20260510033012 55 108 0.0 0.0 0.00 0.02 0.01 89 1013.5
20260510031523 56 108 0.0 0.0 0.00 0.04 0.01 87 1013.3
20260510030022 58 108 0.0 0.0 0.00 0.06 0.01 86 1013.0
20260510024505 57 108 0.0 0.0 0.00 0.06 0.01 86 1012.7
20260510023011 59 140 0.0 0.0 0.00 0.06 0.01 83 1012.4
20260510021530 60 141 0.0 0.0 0.00 0.06 0.01 80 1012.1
20260510020020 62 156 0.0 0.0 0.00 0.06 0.01 78 1011.7
20260510014526 63 131 0.0 1.0 0.00 0.06 0.01 75 1011.6
20260510013006 65 141 0.0 0.0 0.00 0.06 0.01 71 1011.3
20260510011511 66 125 0.0 0.0 0.00 0.06 0.01 68 1011.1
20260510010017 68 136 0.0 0.0 0.00 0.06 0.01 63 1011.0
20260510004526 70 134 0.0 0.0 0.00 0.06 0.01 60 1010.9
20260510003024 73 143 0.0 0.0 0.00 0.06 0.01 54 1010.7
20260510001509 80 233 0.0 0.0 0.00 0.06 0.01 45 1010.4
20260510000013 83 223 0.0 0.0 0.00 0.06 0.01 38 1010.4
20260509234519 81 232 0.0 1.0 0.00 0.06 0.01 35 1010.5
20260509233022 82 272 0.0 2.0 0.00 0.06 0.01 31 1010.3
20260509231526 82 233 0.0 1.0 0.00 0.06 0.01 37 1010.4
20260509230026 82 249 0.0 1.0 0.00 0.06 0.01 35 1010.4
20260509224513 83 248 0.0 0.0 0.00 0.06 0.01 35 1010.4
20260509223020 82 236 0.0 1.0 0.00 0.06 0.01 36 1010.4
20260509221524 81 260 0.0 1.0 0.00 0.06 0.01 37 1010.3
20260509220026 81 309 0.0 2.0 0.00 0.06 0.01 31 1010.3
20260509214528 82 248 0.0 1.0 0.00 0.06 0.01 35 1010.2
20260509213027 80 241 1.0 5.0 0.00 0.06 0.01 34 1010.4
20260509211502 80 314 0.0 3.0 0.00 0.06 0.01 37 1010.6
20260509210006 80 248 0.0 2.0 0.00 0.06 0.01 35 1010.9
20260509204510 80 274 0.0 4.0 0.00 0.06 0.01 32 1010.9
20260509203004 80 311 1.0 6.0 0.00 0.06 0.01 37 1011.1
20260509201503 80 294 1.0 7.0 0.00 0.06 0.01 41 1011.2
20260509200024 80 254 0.0 3.0 0.00 0.06 0.01 35 1011.3
20260509194506 80 291 0.0 3.0 0.00 0.06 0.01 35 1011.3
20260509193024 80 260 1.0 4.0 0.00 0.06 0.01 41 1011.2
20260509191503 79 314 0.0 9.0 0.00 0.06 0.01 35 1011.3
20260509190004 78 315 2.0 7.0 0.00 0.06 0.01 36 1011.3
20260509184517 78 340 1.0 6.0 0.00 0.06 0.01 41 1011.3
20260509183008 78 303 2.0 6.0 0.00 0.06 0.01 47 1011.4
20260509181514 78 266 2.0 8.0 0.00 0.06 0.01 44 1011.5
20260509180004 78 316 1.0 4.0 0.00 0.06 0.01 48 1011.6
20260509174503 77 338 3.0 9.0 0.00 0.06 0.01 41 1011.6
20260509173008 77 278 0.0 4.0 0.00 0.06 0.01 50 1011.9
20260509171513 76 257 0.0 6.0 0.00 0.06 0.01 54 1011.9
20260509170023 76 288 0.0 9.0 0.00 0.06 0.01 54 1012.0
20260509164504 75 262 1.0 6.0 0.00 0.06 0.01 54 1011.8